Meath Environmental Platform

Observations for Trim Patrick St

Time AQI Temp °C Hum % Pres Pa CO μg/m³ H₂S μg/m³ NO μg/m³ NO₂ μg/m³ O₃ μg/m³ SO₂ μg/m³ PM1 μg/m³ PM2.5 μg/m³ PM10 μg/m³
Saturday 8 August 2026
05:05 1 14.7 74 38,460 0.23 0 3.11 13.98 21.23 0 4.57 9.86 10.84
05:04 1 14.7 75 38,460 0.23 0.75 3.14 14.28 21.16 0 2.86 6.98 7.68
05:03 1 14.7 75 38,460 0.22 1.22 3.15 16.57 19.12 0 3.71 7.7 8.47
05:02 1 14.7 74 38,460 0.23 2.73 3.19 17.59 26.96 0 5.43 9.15 10.07
05:01 1 14.7 74 38,460 0.21 2.81 3.2 19.5 18.64 0 3.71 8.45 9.29
05:00 1 14.7 74 38,460 0.22 3.77 3.22 25.89 17.63 0 2.86 7.05 7.76
04:59 1 14.7 72 38,460 0.23 4.08 3.27 30.84 37.92 0 4.57 8.6 9.46
04:58 1 14.7 73 38,460 0.23 2.57 3.25 25.77 21.91 0 3.71 7.81 8.59
04:57 1 14.7 74 38,460 0.21 2.08 3.16 15.53 23.04 0 4.57 9.15 10.07
04:56 1 14.7 74 38,460 0.22 3.2 3.14 20.67 16.53 0 3.71 7.75 8.53
04:55 1 14.7 71 38,460 0.23 3.09 3.27 24.5 29.9 0 4.57 7.95 8.75
04:54 1 14.7 74 38,460 0.22 2.21 3.15 24.6 20.92 0 4.57 8.46 9.3
04:53 1 14.7 74 38,460 0.23 1.97 3.16 15.54 19.53 0 4.57 7.72 8.49
04:52 1 14.7 74 38,460 0.21 3.27 3.17 29.06 26.2 0 3.71 8.43 9.27
04:51 1 14.7 74 38,460 0.21 3.27 3.22 21.9 18.8 0 4.57 8.46 9.31
04:50 1 14.7 74 38,460 0.21 2.52 3.24 16.75 18.39 0 4.57 7.78 8.56
04:49 1 14.7 74 38,460 0.22 4.91 3.21 26.38 36.53 0 3.71 7.74 8.52
04:48 1 14.7 72 38,460 0.21 3.61 3.26 23.85 21.78 0 3.71 7.86 8.64
04:47 1 14.7 72 38,460 0.21 4.94 3.18 31.2 38.84 0 3.71 8.63 9.5
04:46 1 14.6 74 38,460 0.24 4.31 3.2 28.97 24.95 0 3.71 7.78 8.56